AUA26V EDDS-LOWW

Flight info

Callsign AUA26V
Flight time 0h 58m
Altitude 31000
Route ABTAL4B/25 ABTAL L173 RIXED Y161 RIDAR Z98 MIQ L605 BIBAG Q104 AKIMA DCT MASUR MASUR3W
Aircraft A320/M-SDE3FGHIRWY/LB1

Departure

Time 2026-05-04 18:46
Airport Stuttgart Airport (EDDS)

Arrival

Time 2026-05-04 19:45
Airport Vienna International Airport (LOWW)
Time Latitude Longitude Altitude Speed Heading
2026-05-04 18:16 48.68919 9.20090 1288 ft 0 kts 164°
2026-05-04 18:39 48.68918 9.20090 1290 ft 2 kts 164°
2026-05-04 18:39 48.68867 9.20151 1285 ft 11 kts 108°
2026-05-04 18:39 48.68882 9.20269 1285 ft 16 kts 73°
2026-05-04 18:40 48.68910 9.20419 1288 ft 17 kts 73°
2026-05-04 18:40 48.68920 9.20473 1289 ft 0 kts 74°
2026-05-04 18:40 48.68921 9.20475 1289 ft 0 kts 74°
2026-05-04 18:40 48.68925 9.20498 1287 ft 10 kts 73°
2026-05-04 18:41 48.68948 9.20613 1289 ft 12 kts 73°
2026-05-04 18:41 48.68983 9.20795 1285 ft 23 kts 73°
2026-05-04 18:41 48.69030 9.21039 1285 ft 25 kts 74°
2026-05-04 18:41 48.69079 9.21299 1287 ft 27 kts 74°
2026-05-04 18:42 48.69133 9.21581 1287 ft 28 kts 74°
2026-05-04 18:42 48.69189 9.21877 1285 ft 30 kts 74°
2026-05-04 18:42 48.69247 9.22187 1286 ft 31 kts 74°
2026-05-04 18:42 48.69309 9.22508 1289 ft 32 kts 73°
2026-05-04 18:43 48.69371 9.22839 1285 ft 33 kts 74°
2026-05-04 18:43 48.69436 9.23179 1285 ft 34 kts 74°
2026-05-04 18:43 48.69501 9.23526 1287 ft 35 kts 74°
2026-05-04 18:43 48.69568 9.23874 1289 ft 29 kts 73°
2026-05-04 18:44 48.69608 9.24101 1285 ft 19 kts 79°
2026-05-04 18:44 48.69603 9.24166 1286 ft 19 kts 107°
2026-05-04 18:44 48.69501 9.24313 1288 ft 9 kts 163°
2026-05-04 18:44 48.69419 9.24308 1285 ft 13 kts 204°
2026-05-04 18:45 48.69376 9.24234 1285 ft 0 kts 252°
2026-05-04 18:45 48.69333 9.24014 1288 ft 60 kts 254°
2026-05-04 18:45 48.69153 9.23062 1286 ft 127 kts 254°
2026-05-04 18:46 48.68866 9.21526 1410 ft 168 kts 257°
2026-05-04 18:46 48.68543 9.19725 1953 ft 182 kts 257°
2026-05-04 18:46 48.68196 9.17856 2596 ft 193 kts 257°
2026-05-04 18:46 48.67808 9.15848 3157 ft 208 kts 255°
2026-05-04 18:47 48.67370 9.13629 3625 ft 231 kts 255°
2026-05-04 18:47 48.66876 9.11245 4371 ft 242 kts 248°
2026-05-04 18:47 48.65864 9.09171 4848 ft 250 kts 214°
2026-05-04 18:47 48.64247 9.08372 4956 ft 247 kts 177°
2026-05-04 18:48 48.62654 9.09192 4978 ft 246 kts 144°
2026-05-04 18:48 48.61570 9.11130 4978 ft 245 kts 110°
2026-05-04 18:48 48.61276 9.13662 4984 ft 252 kts 91°
2026-05-04 18:48 48.61429 9.16375 4980 ft 263 kts 82°
2026-05-04 18:49 48.61622 9.19133 4978 ft 265 kts 86°
2026-05-04 18:49 48.61748 9.21919 4982 ft 266 kts 86°
2026-05-04 18:49 48.61868 9.24704 4980 ft 265 kts 83°
2026-05-04 18:49 48.62293 9.27405 4979 ft 265 kts 69°
2026-05-04 18:50 48.63004 9.29982 4983 ft 266 kts 68°
2026-05-04 18:50 48.63729 9.32561 4983 ft 267 kts 67°
2026-05-04 18:50 48.64445 9.35100 4979 ft 266 kts 67°
2026-05-04 18:50 48.65178 9.37703 4988 ft 267 kts 67°
2026-05-04 18:51 48.65904 9.40281 4986 ft 266 kts 67°
2026-05-04 18:51 48.66619 9.42826 4981 ft 266 kts 67°
2026-05-04 18:51 48.67345 9.45405 5032 ft 270 kts 67°
2026-05-04 18:51 48.68089 9.48052 5894 ft 274 kts 68°
2026-05-04 18:52 48.68840 9.50723 6852 ft 278 kts 69°
2026-05-04 18:52 48.69602 9.53440 7740 ft 284 kts 69°
2026-05-04 18:52 48.70379 9.56214 8644 ft 289 kts 69°
2026-05-04 18:52 48.71168 9.59041 9543 ft 294 kts 70°
2026-05-04 18:53 48.71975 9.61932 10262 ft 306 kts 69°
2026-05-04 18:53 48.72836 9.65018 10610 ft 329 kts 69°
2026-05-04 18:53 48.73743 9.68266 11247 ft 339 kts 69°
2026-05-04 18:53 48.74671 9.71587 12049 ft 344 kts 69°
2026-05-04 18:54 48.75605 9.74941 12864 ft 348 kts 69°
2026-05-04 18:54 48.76244 9.77239 13407 ft 351 kts 69°
2026-05-04 18:54 48.77509 9.81794 13876 ft 355 kts 69°
2026-05-04 18:54 48.78467 9.85246 13960 ft 355 kts 69°
2026-05-04 18:55 48.79422 9.88698 13969 ft 355 kts 69°
2026-05-04 18:55 48.81016 9.94473 13970 ft 354 kts 69°
2026-05-04 18:55 48.81963 9.97923 13970 ft 354 kts 69°
2026-05-04 18:56 48.82912 10.01383 13973 ft 354 kts 69°
2026-05-04 18:56 48.83859 10.04835 13972 ft 354 kts 69°
2026-05-04 18:56 48.84717 10.08325 13972 ft 353 kts 76°
2026-05-04 18:56 48.85122 10.11997 14177 ft 355 kts 89°
2026-05-04 18:57 48.85045 10.15691 14945 ft 355 kts 98°
2026-05-04 18:57 48.84754 10.19434 15660 ft 359 kts 99°
2026-05-04 18:57 48.84453 10.23264 16368 ft 364 kts 99°
2026-05-04 18:57 48.84144 10.27102 17016 ft 369 kts 99°
2026-05-04 18:58 48.83827 10.30990 17676 ft 374 kts 99°
2026-05-04 18:58 48.83505 10.34929 18321 ft 378 kts 100°
2026-05-04 18:58 48.82955 10.38849 18890 ft 380 kts 110°
2026-05-04 18:58 48.81925 10.42497 19465 ft 380 kts 122°
2026-05-04 18:59 48.80424 10.45833 20062 ft 380 kts 133°
2026-05-04 18:59 48.78623 10.48771 20662 ft 382 kts 136°
2026-05-04 18:59 48.76810 10.51663 21248 ft 385 kts 136°
2026-05-04 18:59 48.74958 10.54622 21831 ft 388 kts 136°
2026-05-04 19:00 48.73094 10.57608 22437 ft 392 kts 136°
2026-05-04 19:00 48.71214 10.60621 23028 ft 395 kts 136°
2026-05-04 19:00 48.69292 10.63696 23597 ft 398 kts 136°
2026-05-04 19:00 48.67399 10.66706 24079 ft 401 kts 136°
2026-05-04 19:01 48.65445 10.69810 24560 ft 404 kts 136°
2026-05-04 19:01 48.63670 10.73150 25023 ft 412 kts 123°
2026-05-04 19:01 48.62572 10.77172 25462 ft 421 kts 105°
2026-05-04 19:01 48.62145 10.81575 25898 ft 426 kts 99°
2026-05-04 19:02 48.61809 10.86033 26334 ft 428 kts 98°
2026-05-04 19:02 48.61485 10.90519 26753 ft 431 kts 98°
2026-05-04 19:02 48.61163 10.95036 27168 ft 434 kts 98°
2026-05-04 19:02 48.60841 10.99581 27573 ft 436 kts 98°
2026-05-04 19:03 48.60512 11.04154 27977 ft 439 kts 98°
2026-05-04 19:03 48.60175 11.08753 28374 ft 442 kts 98°
2026-05-04 19:03 48.59831 11.13379 28761 ft 444 kts 98°
2026-05-04 19:03 48.59486 11.17970 29141 ft 447 kts 98°
2026-05-04 19:04 48.59129 11.22649 29507 ft 450 kts 98°
2026-05-04 19:04 48.58766 11.27352 29869 ft 452 kts 98°
2026-05-04 19:04 48.58400 11.32083 30197 ft 455 kts 98°
2026-05-04 19:04 48.58032 11.36825 30499 ft 456 kts 98°
2026-05-04 19:05 48.57660 11.41594 30806 ft 458 kts 98°
2026-05-04 19:05 48.57286 11.46372 30923 ft 456 kts 98°
2026-05-04 19:05 48.56922 11.51030 30942 ft 438 kts 98°
2026-05-04 19:05 48.56570 11.55528 30946 ft 427 kts 98°
2026-05-04 19:06 48.55873 11.64367 30950 ft 422 kts 98°
2026-05-04 19:06 48.55169 11.73165 30947 ft 422 kts 99°
2026-05-04 19:07 48.54449 11.81963 30940 ft 422 kts 99°
2026-05-04 19:07 48.53731 11.90736 30941 ft 422 kts 99°
2026-05-04 19:08 48.53004 11.99514 30932 ft 421 kts 99°
2026-05-04 19:08 48.52275 12.08289 30930 ft 421 kts 99°
2026-05-04 19:09 48.51541 12.17045 30926 ft 421 kts 99°
2026-05-04 19:09 48.50796 12.25799 30915 ft 420 kts 99°
2026-05-04 19:10 48.50048 12.34531 30921 ft 420 kts 99°
2026-05-04 19:10 48.49296 12.43260 30912 ft 420 kts 99°
2026-05-04 19:11 48.48534 12.51975 30912 ft 419 kts 100°
2026-05-04 19:11 48.47765 12.60682 30908 ft 419 kts 100°
2026-05-04 19:12 48.46598 12.73734 30898 ft 419 kts 100°
2026-05-04 19:13 48.45815 12.82432 30898 ft 419 kts 100°
2026-05-04 19:13 48.45028 12.91129 30900 ft 419 kts 100°
2026-05-04 19:14 48.44236 12.99824 30899 ft 419 kts 100°
2026-05-04 19:14 48.43437 13.08514 30893 ft 419 kts 100°
2026-05-04 19:15 48.42628 13.17190 30903 ft 418 kts 100°
2026-05-04 19:15 48.41805 13.25857 30901 ft 418 kts 100°
2026-05-04 19:16 48.41518 13.34412 30901 ft 406 kts 86°
2026-05-04 19:16 48.42039 13.42861 30903 ft 405 kts 87°
2026-05-04 19:17 48.42519 13.51302 30901 ft 404 kts 86°
2026-05-04 19:17 48.42990 13.59734 30901 ft 404 kts 86°
2026-05-04 19:18 48.43463 13.68162 30898 ft 404 kts 86°
2026-05-04 19:18 48.43936 13.76615 30909 ft 411 kts 86°
2026-05-04 19:19 48.44417 13.85301 30906 ft 419 kts 87°
2026-05-04 19:19 48.44897 13.94040 30895 ft 419 kts 86°
2026-05-04 19:20 48.45368 14.02807 30907 ft 420 kts 86°
2026-05-04 19:20 48.45828 14.11576 30898 ft 420 kts 86°
2026-05-04 19:20 48.46060 14.15972 30797 ft 421 kts 86°
2026-05-04 19:21 48.46288 14.20340 30550 ft 418 kts 86°
2026-05-04 19:21 48.46734 14.29024 30323 ft 413 kts 86°
2026-05-04 19:21 48.46955 14.33351 30023 ft 414 kts 86°
2026-05-04 19:22 48.47171 14.37669 29526 ft 412 kts 86°
2026-05-04 19:22 48.47383 14.41959 29018 ft 409 kts 86°
2026-05-04 19:22 48.47595 14.46222 28521 ft 407 kts 86°
2026-05-04 19:22 48.47802 14.50400 28043 ft 404 kts 86°
2026-05-04 19:23 48.48013 14.54664 27565 ft 401 kts 86°
2026-05-04 19:23 48.48215 14.58790 27103 ft 399 kts 86°
2026-05-04 19:23 48.48418 14.62999 26635 ft 396 kts 86°
2026-05-04 19:23 48.48614 14.67117 26181 ft 393 kts 86°
2026-05-04 19:24 48.48808 14.71217 25728 ft 391 kts 86°
2026-05-04 19:24 48.49002 14.75243 25306 ft 388 kts 86°
2026-05-04 19:24 48.49193 14.79289 24863 ft 386 kts 86°
2026-05-04 19:24 48.49376 14.83300 24446 ft 383 kts 86°
2026-05-04 19:25 48.49558 14.87304 24020 ft 381 kts 86°
2026-05-04 19:25 48.49736 14.91274 23606 ft 378 kts 86°
2026-05-04 19:25 48.49913 14.95221 23136 ft 376 kts 86°
2026-05-04 19:25 48.50089 14.99143 22641 ft 374 kts 86°
2026-05-04 19:26 48.50262 15.03039 22169 ft 371 kts 86°
2026-05-04 19:26 48.50434 15.06912 21697 ft 369 kts 86°
2026-05-04 19:26 48.50606 15.10762 21231 ft 367 kts 87°
2026-05-04 19:26 48.50777 15.14590 20776 ft 365 kts 87°
2026-05-04 19:27 48.50945 15.18408 20331 ft 363 kts 87°
2026-05-04 19:27 48.51106 15.22197 19883 ft 361 kts 87°
2026-05-04 19:27 48.51263 15.25968 19453 ft 359 kts 88°
2026-05-04 19:27 48.51419 15.29720 19023 ft 358 kts 88°
2026-05-04 19:28 48.51576 15.33456 18569 ft 357 kts 87°
2026-05-04 19:28 48.51731 15.37197 18003 ft 359 kts 88°
2026-05-04 19:28 48.51888 15.40965 17360 ft 361 kts 88°
2026-05-04 19:28 48.51962 15.44695 16980 ft 355 kts 95°
2026-05-04 19:29 48.51764 15.48343 16900 ft 342 kts 95°
2026-05-04 19:29 48.51709 15.51905 16919 ft 338 kts 92°
2026-05-04 19:29 48.51716 15.55495 16827 ft 338 kts 91°
2026-05-04 19:29 48.51745 15.58976 16570 ft 336 kts 91°
2026-05-04 19:30 48.51780 15.62490 16313 ft 334 kts 91°
2026-05-04 19:30 48.51815 15.65989 16053 ft 333 kts 91°
2026-05-04 19:30 48.51847 15.69475 15811 ft 332 kts 91°
2026-05-04 19:30 48.51874 15.72943 15538 ft 328 kts 91°
2026-05-04 19:31 48.51898 15.76375 15147 ft 327 kts 91°
2026-05-04 19:31 48.51919 15.79802 14749 ft 327 kts 91°
2026-05-04 19:31 48.51936 15.83228 14348 ft 327 kts 92°
2026-05-04 19:31 48.51951 15.86646 13992 ft 325 kts 92°
2026-05-04 19:32 48.51964 15.90056 13583 ft 325 kts 92°
2026-05-04 19:32 48.51973 15.93457 13148 ft 324 kts 92°
2026-05-04 19:32 48.51983 15.96860 12743 ft 323 kts 92°
2026-05-04 19:32 48.51993 16.00239 12335 ft 321 kts 91°
2026-05-04 19:33 48.51877 16.03571 12055 ft 313 kts 103°
2026-05-04 19:33 48.51140 16.06588 11795 ft 302 kts 119°
2026-05-04 19:33 48.50184 16.09369 11330 ft 297 kts 119°
2026-05-04 19:33 48.49232 16.12130 10817 ft 295 kts 119°
2026-05-04 19:34 48.48303 16.14830 10322 ft 293 kts 119°
2026-05-04 19:34 48.47368 16.17543 9804 ft 291 kts 119°
2026-05-04 19:34 48.46439 16.20228 9276 ft 287 kts 120°
2026-05-04 19:34 48.45522 16.22879 8736 ft 285 kts 119°
2026-05-04 19:35 48.44599 16.25546 8198 ft 282 kts 120°
2026-05-04 19:35 48.43695 16.28153 7649 ft 279 kts 120°
2026-05-04 19:35 48.42804 16.30721 7288 ft 269 kts 120°
2026-05-04 19:35 48.41987 16.33085 7172 ft 247 kts 120°
2026-05-04 19:36 48.41225 16.35287 6983 ft 229 kts 119°
2026-05-04 19:36 48.40497 16.37380 6583 ft 223 kts 120°
2026-05-04 19:36 48.39778 16.39435 6127 ft 221 kts 119°
2026-05-04 19:36 48.39297 16.40807 5811 ft 219 kts 121°
2026-05-04 19:37 48.38359 16.43493 5157 ft 218 kts 121°
2026-05-04 19:37 48.37659 16.45483 4997 ft 216 kts 124°
2026-05-04 19:37 48.37040 16.46649 5002 ft 206 kts 142°
2026-05-04 19:37 48.35432 16.47842 5004 ft 193 kts 166°
2026-05-04 19:38 48.34142 16.48390 4940 ft 192 kts 166°
2026-05-04 19:38 48.33283 16.48757 4833 ft 185 kts 166°
2026-05-04 19:38 48.32085 16.49269 4605 ft 174 kts 167°
2026-05-04 19:38 48.30960 16.49750 4397 ft 162 kts 167°
2026-05-04 19:39 48.29920 16.50194 4178 ft 149 kts 168°
2026-05-04 19:39 48.28954 16.50606 3985 ft 139 kts 168°
2026-05-04 19:39 48.28051 16.50991 3788 ft 132 kts 169°
2026-05-04 19:39 48.27173 16.51364 3624 ft 130 kts 170°
2026-05-04 19:40 48.26306 16.51732 3460 ft 130 kts 169°
2026-05-04 19:40 48.25438 16.52102 3291 ft 130 kts 169°
2026-05-04 19:40 48.24572 16.52470 3122 ft 129 kts 169°
2026-05-04 19:40 48.23721 16.52832 2954 ft 129 kts 169°
2026-05-04 19:41 48.22860 16.53198 2787 ft 128 kts 168°
2026-05-04 19:41 48.22001 16.53563 2624 ft 128 kts 168°
2026-05-04 19:41 48.21145 16.53927 2454 ft 128 kts 168°
2026-05-04 19:41 48.20296 16.54288 2286 ft 123 kts 167°
2026-05-04 19:42 48.19506 16.54624 2124 ft 115 kts 167°
2026-05-04 19:42 48.18743 16.54948 1976 ft 113 kts 166°
2026-05-04 19:42 48.17990 16.55264 1828 ft 112 kts 166°
2026-05-04 19:42 48.17241 16.55578 1677 ft 112 kts 164°
2026-05-04 19:43 48.16488 16.55920 1542 ft 115 kts 165°
2026-05-04 19:43 48.15742 16.56243 1429 ft 107 kts 166°
2026-05-04 19:43 48.15002 16.56530 1232 ft 124 kts 163°
2026-05-04 19:43 48.14193 16.56883 1191 ft 119 kts 165°
2026-05-04 19:44 48.13371 16.57226 1047 ft 126 kts 164°
2026-05-04 19:44 48.12526 16.57583 842 ft 124 kts 163°
2026-05-04 19:44 48.11720 16.57929 638 ft 118 kts 163°
2026-05-04 19:44 48.11024 16.58223 620 ft 82 kts 165°
2026-05-04 19:45 48.10638 16.58382 611 ft 36 kts 163°
2026-05-04 19:45 48.10395 16.58470 622 ft 36 kts 176°
2026-05-04 19:45 48.10181 16.58420 622 ft 20 kts 195°
2026-05-04 19:45 48.10138 16.58382 620 ft 0 kts 240°
2026-05-04 19:47 48.10115 16.58312 613 ft 15 kts 227°
2026-05-04 19:48 48.10120 16.58183 613 ft 18 kts 335°
2026-05-04 19:48 48.10240 16.58133 619 ft 17 kts 344°
2026-05-04 19:48 48.10398 16.58068 618 ft 27 kts 345°
2026-05-04 19:48 48.10581 16.57990 610 ft 28 kts 344°
2026-05-04 19:49 48.10770 16.57910 620 ft 29 kts 344°
2026-05-04 19:49 48.10971 16.57828 616 ft 31 kts 345°
2026-05-04 19:49 48.11186 16.57734 616 ft 33 kts 344°
2026-05-04 19:49 48.11391 16.57649 617 ft 24 kts 345°
2026-05-04 19:50 48.11546 16.57581 616 ft 22 kts 343°
2026-05-04 19:50 48.11690 16.57518 621 ft 21 kts 343°
2026-05-04 19:50 48.11800 16.57439 613 ft 14 kts 294°
2026-05-04 19:50 48.11841 16.57259 615 ft 21 kts 295°
2026-05-04 19:51 48.11881 16.57061 614 ft 19 kts 294°
2026-05-04 19:51 48.11938 16.56888 618 ft 18 kts 295°
2026-05-04 19:51 48.11912 16.56778 616 ft 6 kts 207°
2026-05-04 19:51 48.11902 16.56771 615 ft 1 kts 206°
2026-05-04 19:52 48.11899 16.56769 614 ft 0 kts 206°